Regional Weather Roundup
Issued by NWS

Home | Current Version | Previous Version | Graphics & Text | Print | Product List | Glossary On
Versions: 1 2 3 4 5 6 7 8 9 10 11 12 13 14 15 16 17 18 19 20 21 22 23 24 25 26 27 28 29 30 31 32 33 34 35 36 37 38 39 40 41 42 43 44 45 46 47 48 49 50
000
ASUS43 KMPX 022310
RWRMN
WEATHER ROUNDUP FOR MINNESOTA
NATIONAL WEATHER SERVICE TWIN CITIES/CHANHASSEN MN
600 PM CDT TUE JUN 02 2015


NOTE: "FAIR" INDICATES FEW OR NO CLOUDS BELOW 12,000 FEET WITH NO
SIGNIFICANT WEATHER AND/OR OBSTRUCTIONS TO VISIBILITY. N/A MEANS
CURRENT SKY AND/OR WEATHER CONDITIONS ARE NOT AVAILABLE.

MNZ060>063-068>070-030000-
   Twin Cities Metro

CITY           SKY/WX    TMP DP  RH WIND       PRES   REMARKS
TWIN CITIES    PTSUNNY   75  52  44 S17G24    29.92F
ST PAUL        PTSUNNY   73  53  49 S14       29.92F
CRYSTAL        PTSUNNY   75  52  44 S13G21    29.90F
BLAINE         PTSUNNY   75  54  46 S13G22    29.90F
LAKEVILLE      MOSUNNY   73  54  49 S15G23    29.93F
EDEN PRAIRIE   PTSUNNY   75  51  43 S20G25    29.90F
SOUTH ST PAUL  PTSUNNY   74  51  43 S12G18    29.92F
LAKE ELMO      FAIR      72  54  53 S12G17    29.95F
$$
MNZ001>005-007-008-013>017-022>024-027-028-030000-
   Northwest Minnesota

CITY           SKY/WX    TMP DP  RH WIND       PRES   REMARKS
BEMIDJI        LGT RAIN  69  55  59 S9        29.85R
HALLOCK        LGT RAIN  63  61  94 NE6       29.80F
ROSEAU         LGT RAIN  63  57  82 CALM      29.83S
WARROAD        RAIN      61  57  88 CALM      29.84S
THIEF RVR FALL CLOUDY    68  59  73 S5        29.81F
CROOKSTON      MOSUNNY   70  61  73 E6        29.79F
FOSSTON        CLOUDY    70  66  88 SE5       29.82S
DETROIT LAKES  MOSUNNY   72  55  56 SE12      29.82S
MOORHEAD       MOSUNNY   79  61  53 S14G21    29.74F
PARK RAPIDS    CLOUDY    72  52  49 S17       29.85S
MAHNOMEN       MOCLDY    71  58  64 S10       29.80F
$$
MNZ006-009>011-018-025>026-030000-
   North Central Minnesota

CITY           SKY/WX    TMP DP  RH WIND       PRES   REMARKS
BAUDETTE       CLOUDY    62  59  90 E6        29.82F
FLAG ISLAND    CLOUDY    57  57 100 SE5       29.83S
INTL FALLS     LGT RAIN  63  59  87 CALM      29.85S
WASKISH        CLOUDY    66  59  77 CALM      29.83S
BIG FORK       CLOUDY    72  52  49 S6        29.86F
LONGVILLE      CLOUDY    70  52  52 S13G24    29.87S
GRAND RAPIDS   CLOUDY    72  48  43 S14G23    29.89S
CRANE LAKE     CLOUDY    66  55  68 CALM      29.88F
ORR            CLOUDY    72  46  40 S3        29.85S
COOK           CLOUDY    72  46  40 S8        29.88S
WALKER         CLOUDY    69  49  47 S10G21    29.86R
$$
MNZ012-019>021-037-030000-
   Northeast Minnesota

CITY           SKY/WX    TMP DP  RH WIND       PRES   REMARKS
DULUTH         PTSUNNY   65  45  48 S8        29.94R
ELY            CLOUDY    72  46  40 S10       29.89S
HIBBING        CLOUDY    73  47  39 S8        29.89S
EVELETH        CLOUDY    73  46  38 S8G16     29.90S
DULUTH HARBOR  PTSUNNY   48  43  81 NE3       29.96R
TWO HARBORS    PTSUNNY   68  52  56 E3        29.91F
SILVER BAY     PTSUNNY   66  45  45 NE8       29.92S
GRAND MARAIS     N/A     46  38  73 NE10      29.97S
G MARAIS ARPRT CLOUDY    59  39  47 SE3       29.99S
$$
MNZ029>031-032-039>041-046>048-054>057-064-030000-
   West Central Minnesota

CITY           SKY/WX    TMP DP  RH WIND       PRES   REMARKS
FERGUS FALLS   CLOUDY    79  59  50 S21G26    29.77F
WHEATON        SUNNY     79  61  53 S17G29    29.76S
MORRIS         MOSUNNY   81  59  47 S23G29    29.77S
ALEXANDRIA     MOSUNNY   79  56  45 S20G26    29.83F
ELBOW LAKE     PTSUNNY   79  60  51 S21G31    29.77F
WADENA         CLOUDY    73  55  53 S14       29.83F
GLENWOOD       SUNNY     79  57  47 S20G30    29.84S
APPLETON       SUNNY     84  57  39 S15G24    29.77S
BENSON         SUNNY     81  54  39 S21       29.79F
ORTONVILLE     SUNNY     81  61  50 S18G28    29.76S
MADISON        MOSUNNY   82  57  42 S28       29.77S
WILLMAR        FAIR      81  55  41 S8G24     29.84S
$$
MNZ033>034-036-042>043-049>051-058-059-030000-
   Central Minnesota

CITY           SKY/WX    TMP DP  RH WIND       PRES   REMARKS
ST CLOUD       CLOUDY    75  56  51 SE15G24   29.87F
SAUK CENTRE    FAIR      79  50  36 S21G30    29.84F
PAYNESVILLE    MOSUNNY   75  45  34 E17G29    29.85F
AITKIN         LGT RAIN  68  54  60 S8        29.88F
PINE RIVER     CLOUDY    70  54  56 S9        29.90F
BRAINERD       CLOUDY    69  52  54 S12G21    29.88F
STAPLES        PTSUNNY   70  54  56 SE10      29.85S
LONG PRAIRIE   FAIR      77  50  38 SE22      29.85S
LITTLE FALLS   CLOUDY    73  52  46 SE13G21   29.87F
LITCHFIELD     PTSUNNY   79  48  34 SE13G20   29.87F
BUFFALO        CLOUDY    74  51  44 SE9G17    29.90F
MAPLE LAKE     CLOUDY    77  54  44 SE9G18    29.89F
$$
MNZ037-044-045-052-053-030000-
   East Central Minnesota

CITY           SKY/WX    TMP DP  RH WIND       PRES   REMARKS
PRINCETON      CLOUDY    75  54  46 SE12G20   29.91S
MORA           CLOUDY    70  52  52 S9        29.93F
CAMBRIDGE      CLOUDY    75  55  50 S12       29.90S
RUSH CITY      CLOUDY    71  53  52 S9        29.93R
MOOSE LAKE     CLOUDY    72  52  49 S12G20    29.90S
HINCKLEY       FAIR      72  55  56 S13       29.93S
CLOQUET        PTSUNNY   72  50  46 S9        29.92S
MCGREGOR       CLOUDY    70  52  52 S12G21    29.90F
$$
MNZ071>073-080-081-089-090-097-098-030000-
   Southwest Minnesota

CITY           SKY/WX    TMP DP  RH WIND       PRES   REMARKS
MONTEVIDEO     SUNNY     81  57  44 S15G29    29.80R
GRANITE FALLS  MOSUNNY   81  57  43 SE29G37   29.82F
CANBY          MOSUNNY   81  60  49 S23G31    29.78F
MARSHALL       MOSUNNY   81  57  44 S26G33    29.80F
REDWOOD FALLS  MOSUNNY   79  55  43 S25G36    29.83F
OLIVIA         MOSUNNY   73  52  46 S20G29    29.84F
PIPESTONE      SUNNY     79  61  53 S26G33    29.83F
WINDOM         PTSUNNY   75  55  50 S18G28    29.88F
WORTHINGTON    MOSUNNY   75  55  50 S20G28    29.87F
JACKSON        PTSUNNY   75  55  50 S17G26    29.92S
TRACY          SUNNY     80  58  47 S21G33    29.83F
SLAYTON        SUNNY     78  56  47 S24G33    29.85F
$$
MNZ065>067-074>077-082>085-091>093-030000-
   South Central Minnesota

CITY           SKY/WX    TMP DP  RH WIND       PRES   REMARKS
MANKATO        PTSUNNY   75  50  41 S14G28    29.92S
NEW ULM        PTSUNNY   77  45  31 S18G26    29.87F
ST JAMES       PTSUNNY   77  52  41 SE20      29.90F
FAIRMONT       MOSUNNY   75  48  38 S22G29    29.91F
GLENCOE        CLOUDY    80  54  40 SE12G18   29.88F
FARIBAULT      MOSUNNY   75  54  46 SE15G22   29.94F
OWATONNA       MOSUNNY   75  52  43 S14G23    29.95F
WASECA         PTSUNNY   77  52  41 S18G24    29.95F
ALBERT LEA     MOSUNNY   75  50  41 S17G24    29.96S
$$
MNZ078>079-086>088-094>096-030000-
   Southeast Minnesota

CITY           SKY/WX    TMP DP  RH WIND       PRES   REMARKS
ROCHESTER      SUNNY     73  51  46 S16G22    29.99F
RED WING       MOSUNNY   75  48  38 S10G22    29.95F
STANTON        MOSUNNY   75  51  43 S17G24    29.94F
DODGE CENTER   SUNNY     73  52  46 S18       29.98F
WINONA         MOSUNNY   73  52  46 S3        29.99F
AUSTIN         SUNNY     72  54  53 S10G22    29.97F
PRESTON        SUNNY     71  49  45 S16G22    30.01S
$$
ABBREVIATIONS USED IN REMARKS
   TC - TEMPERATURES IN CELSIUS
  WCI - WIND CHILL INDEX
   HX - HEAT INDEX
  VSB - VISIBILITY
$$



USA.gov is the U.S. government's official web portal to all federal, state and local government web resources and services.